EHI
0 0 0 0 0 0 0 0 0 0 0 0 0 0 0 0 0 0 0 0 0 0 0 0 0 0 0 0 0 0 0 0 0 0 0 0 0 0 0 0 0 0 0 0
0 0 0 0 0 0 0 0 0 0 0 0 0 0 0 0 0 0 0 0 0 0 0 0 0 0 0 0 0 0 0 0 0 0 0 0 0 0 0 0 0 0 0 0
0 0 0 0 0 0 0 0 0 0 0 0 0 0 0 0 0 0 0 0 0 0 0 0 0 0 0 0 0 0 0 0 0 0 0 0 0 0 0 0 0 0 0 0
0 0 0 0 0 0 0 0 0 0 0 0 0 0 0 0 0 0 0 0 0 0 0 0 0 0 0 0 0 0 0 0 0 0 0 0 0 0 0 0 0 0 0 0
0 0 0 0 0 0 0 0 0 0 0 0 0 0 0 0 0 0 0 0 0 0 0 0 0 0 0 0 0 0 0 0 0 0 0 0 0 0 0 0 0 0 0 0
0 0 0 0 0 0 0 0 0 0 0 0 0 0 0 0 0 0 0 0 0 0 0 0 0 0 0 0 0 0 0 0 0 0 0 0 0 0 0 0 0 0 0 0
0 0 0 0 0 0 0 0 0 0 0 0 0 0 0 0 0 0 0 0 0 0 0 0 0 0 0 0 0 0 0 0 0 0 0 0 0 0 0 0 0 0 0 0
0 0 0 0 0 0 0 0 0 0 0 0 0 0 0 0 0 0 0 0 0 0 0 0 0 0 0 0 0 0 0 0 0 0 0 0 0 0 0 0 0 0 0 0
0 0 0 0 0 0 0 0 0 0 0 0 0 0 0 0 0 0 0 0 0 0 0 0 0 0 0 0 0 0 0 0 0 0 0 0 0 0 0 0 0 0 0 0
0 0 0 0 0 0 0 0 0 0 0 0 0 0 0 0 0 0 0 0 0 0 0 0 0 0 0 0 0 0 0 0 0 0 0 0 0 0 0 0 0 0 0 0
0 0 0 0 0 0 0 0 0 0 0 0 0 0 0 0 0 0 0 0 0 0 0 0 0 0 0 0 0 0 0 0 0 0 0 0 0 0 0 0 0 0 0 0
0 0 0 0 0 0 0 0 0 0 0 0 0 0 0 0 0 0 0 0 0 0 0 0 0 0 0 0 0 0 0 0 0 0 0 0 0 0 0 0 0 0 0 0
0 0 0 0 0 0 0 0 0 0 0 0 0 0 0 0 0 0 0 0 0 0 0 0 0 0 0 0 0 0 0 0 0 0 0 0 0 0 0 0 0 0 0 0
0 0 0 0 0 0 0 0 0 0 0 0 0 0 0 0 0 0 0 0 0 0 0 0 0 0 0 0 0 0 0 0 0 0 0 0 0 0 0 0 0 0 0 0
0 0 0 0 0 0 0 0 0 0 0 0 0 0 0 0 0 0 0 0 0 0 0 0 0 0 0 0 0 0 0 0 0 0 0 0 0 0 0 0 0 0 0 0
0 0 0 0 0 0 0 0 0 0 0 0 0 0 0 0 0 0 0 0 0 0 0 0 0 0 0 0 0 0 0 0 0 0 0 0 0 0 0 0 0 0 0 0
0 0 0 0 0 0 0 0 0 0 0 0 0 0 0 0 0 0 0 0 0 0 0 0 0 0 0 0 0 0 0 0 0 0 0 0 0 0 0 0 0 0 0 0
0 0 0 0 0 0 0 0 0 0 0 0 0 0 0 0 0 0 0 0 0 0 0 0 0 0 0 0 0 0 0 0 0 0 0 0 0 0 0 0 0 0 0 0
0 0 0 0 0 0 0 0 0 0 0 0 0 0 0 0 0 0 0 0 0 0 0 0 0 0 0 0 0 0 0 0 0 0 0 0 0 0 0 0 0 0 0 0
0 0 0 0 0 0 0 0 0 0 0 0 0 0 0 0 0 0 0 0 0 0 0 0 0 0 0 0 0 0 0 0 0 0 0 0 0 0 0 0 0 0 0 0
0 0 0 0 0 0 0 0 0 0 0 0 0 0 0 0 0 0 0 0 0 0 0 0 0 0 0 0 0 0 0 0 0 0 0 0 0 0 0 0 0 0 0 0
0 0 0 0 0 0 0 0 0 0 0 0 0 0 0 0 0 0 0 0 0 0 0 0 0 0 0 0 0 0 0 0 0 0 0 0 0 0 0 0 0 0 0 0
0 0 0 0 0 0 0 0 0 0 0 0 0 0 0 0 0 0 0 0 0 0 0 0 0 0 0 0 0 0 0 0 0 0 0 0 0 0 0 0 0 0 0 0
0 0 0 0 0 0 0 0 0 0 0 0 0 0 0 0 0 0 0 0 0 0 0 0 0 0 0 0 0 0 0 0 0 0 0 0 0 0 0 0 0 0 0 0
0 0 0 0 0 0 0 0 0 0 0 0 0 0 0 0 0 0 0 0 0 0 0 0 0 0 0 0 0 0 0 0 0 0 0 0 0 0 0 0 0 0 0 0
0 0 0 0 0 0 0 0 0 0 0 0 0 0 0 0 0 0 0 0 0 0 0 0 0 0 0 0 0 0 0 0 0 0 0 0 0 0 0 0 0 0 0 0
0 0 0 0 0 0 0 0 0 0 0 0 0 0 0 0 0 0 0 0 0 0 0 0 0 0 0 0 0 0 0 0 0 0 0 0 0 0 0 0 0 0 0 0
Wind_Speed
7 4 4 7 9 10 10 6 5 4 3 5 7 6 6 6 6 6 6 6 7 6 6 6 6 6 6 5 5 5 5 5 5 5 5 5 5 5 5 6 6 6 7 7
5 4 1 5 8 8 8 6 5 4 4 3 2 2 4 5 6 8 9 9 8 7 6 6 6 6 6 6 6 6 6 6 6 6 6 6 6 6 6 6 7 8 8 8
2 6 3 3 6 6 6 6 5 5 3 3 4 5 6 7 8 10 9 9 8 7 7 6 6 5 6 6 6 7 7 7 7 7 7 7 7 7 7 7 7 8 8 8
4 3 2 7 6 5 3 4 3 2 1 1 2 3 5 6 7 8 8 8 8 6 6 7 7 5 5 6 6 6 6 6 6 6 6 6 6 6 7 6 6 6 7 6
4 3 6 7 6 4 1 4 3 3 4 3 2 4 8 8 7 6 6 6 7 6 6 6 6 6 5 6 6 6 6 6 6 6 6 6 6 6 5 5 5 5 5 6
4 5 3 7 9 5 2 3 5 3 5 7 5 4 6 7 6 6 5 5 7 6 6 6 6 5 5 6 6 6 6 6 5 5 5 6 6 5 4 4 4 3 3 4
5 4 6 10 9 6 2 5 6 4 5 7 8 6 5 6 6 6 5 5 6 6 5 5 4 4 5 5 5 4 4 4 4 4 4 5 5 5 5 4 4 4 4 3
2 2 4 10 8 4 5 7 5 5 5 6 5 5 5 6 5 5 5 5 6 5 6 5 4 4 4 3 3 2 2 2 3 3 5 6 5 4 5 5 5 5 5 5
3 4 7 8 4 5 4 5 6 5 5 3 3 5 6 5 5 5 6 5 5 5 6 6 5 4 4 2 1 0 2 1 2 3 4 5 5 5 5 5 5 5 5 5
2 7 9 8 6 6 4 4 6 5 4 3 4 5 5 4 5 5 5 5 5 6 6 6 6 4 4 4 3 1 2 2 3 4 5 5 4 5 5 5 5 5 6 5
4 6 8 8 7 8 7 6 6 5 4 3 3 4 4 5 5 5 5 5 5 5 5 7 6 5 5 5 6 4 1 3 4 4 4 5 5 5 5 5 4 4 4 5
2 7 7 10 11 11 10 8 7 6 5 3 2 3 4 4 4 4 5 5 5 5 5 6 7 6 6 6 6 5 3 4 3 3 3 3 4 4 7 6 5 6 6 6
3 5 3 11 13 13 11 9 8 6 4 2 2 2 3 3 3 4 5 6 6 6 5 6 6 6 7 6 6 4 3 4 3 3 2 2 3 3 3 2 3 4 5 6
5 5 6 8 12 12 11 10 9 7 5 3 1 1 2 3 3 4 4 5 6 6 5 5 6 6 7 7 6 4 3 4 3 2 2 3 2 2 2 2 2 1 0 2
7 6 6 8 11 11 10 9 8 7 7 6 4 2 0 2 3 3 3 4 6 5 5 5 5 6 6 7 6 4 4 3 2 2 1 2 2 2 3 3 3 2 2 1
10 7 9 10 11 11 11 10 9 8 7 5 4 3 1 1 3 3 2 3 5 5 4 5 6 6 7 6 5 2 4 4 2 1 0 1 1 2 3 3 3 3 4 3
13 12 11 11 12 12 11 10 8 7 7 6 4 3 2 3 3 2 2 3 5 4 3 5 6 7 8 6 5 2 2 3 1 2 1 1 1 2 3 3 3 3 3 2
12 11 11 11 11 11 11 10 8 7 5 5 4 3 3 4 2 2 3 4 5 3 4 5 6 8 7 4 5 5 2 3 4 2 2 2 1 1 3 3 4 4 3 2
10 11 11 11 10 10 9 9 8 6 5 5 5 4 4 3 2 2 3 4 4 3 4 5 9 8 4 6 5 5 5 2 1 2 3 3 2 1 2 3 3 3 3 2
9 9 10 10 10 9 9 8 7 6 6 5 5 5 4 4 3 2 2 3 2 2 3 5 6 6 5 6 7 6 6 4 2 1 3 4 3 2 2 3 3 3 3 2
7 8 9 9 9 8 8 8 8 7 6 5 5 5 5 4 3 2 2 3 0 4 2 6 5 2 4 6 8 6 6 5 3 2 2 3 3 3 3 3 4 3 3 3
7 7 8 8 8 8 8 8 8 8 7 6 6 5 4 4 4 4 4 4 2 3 1 4 2 3 6 8 5 6 6 5 4 2 1 2 2 3 3 4 4 4 3 3
6 8 9 9 10 9 9 8 8 8 8 7 7 6 6 5 3 3 3 1 3 5 1 3 3 6 9 7 6 6 5 4 4 3 3 3 3 3 3 4 4 4 4 4
5 6 7 9 10 10 11 10 8 7 7 7 6 6 5 4 4 4 4 4 5 4 3 4 7 9 9 6 7 6 4 4 3 3 2 3 3 2 3 4 4 4 4 5
6 5 5 7 8 7 8 9 9 8 7 6 7 7 5 4 4 3 3 2 6 6 4 5 8 9 7 6 5 4 4 4 2 1 1 1 2 2 2 3 4 4 4 4
6 5 3 3 4 3 4 5 5 5 6 5 5 5 5 4 5 4 3 4 5 6 5 4 5 6 5 3 3 4 5 5 3 3 3 2 3 3 3 3 4 4 4 5
7 4 2 3 3 2 3 3 4 5 6 6 6 5 5 5 5 5 6 5 5 5 5 5 5 4 3 3 3 4 4 4 4 3 3 4 4 3 4 5 4 4 4 4
Wind_Direction
90 87 45 51 50 55 56 59 59 49 19 334 330 339 341 341 343 356 13 25 30 24 24 34 38 37 38 41 39 37 36 34 28 25 18 16 16 15 12 8 8 9 9 20
152 141 74 71 67 67 67 66 83 82 50 332 327 339 343 355 12 26 26 25 30 30 29 38 45 46 40 45 45 46 45 42 36 34 31 29 27 25 30 32 28 27 29 34
127 149 218 100 76 75 70 67 50 47 23 345 30 33 25 20 27 31 26 18 18 27 28 34 49 59 56 49 46 45 46 44 39 36 35 30 27 24 31 42 37 35 33 35
288 221 64 94 104 103 95 98 80 55 48 22 73 78 57 37 33 29 22 12 5 17 31 29 29 47 66 64 53 42 40 46 43 36 31 28 30 34 28 31 38 39 30 27
325 351 120 145 154 166 131 105 102 40 30 11 174 119 61 38 37 34 23 8 354 3 26 26 23 28 45 57 57 43 33 38 38 33 25 23 24 32 36 30 34 49 30 22
300 309 56 120 130 142 214 150 125 75 33 28 53 66 43 27 30 28 27 9 352 358 15 14 8 16 36 51 53 42 29 28 27 25 26 27 20 20 27 30 29 56 50 32
287 300 95 119 134 170 233 119 125 94 53 47 48 46 29 25 26 15 19 17 358 354 359 347 346 5 39 49 56 56 35 23 16 10 26 48 29 20 22 19 19 28 40 33
295 294 125 141 162 197 96 116 124 100 68 54 42 40 30 27 24 12 10 18 2 349 340 326 348 13 25 59 65 79 71 29 10 36 37 37 31 29 25 16 25 28 23 20
0 60 107 153 160 100 120 137 116 98 82 57 36 35 26 21 24 12 8 14 356 344 343 344 359 4 355 36 46 248 111 54 26 62 69 50 32 32 28 27 26 24 17 15
244 168 161 180 155 139 170 123 109 107 105 63 37 32 19 22 30 14 3 0 354 5 0 340 335 348 8 5 334 286 142 95 68 63 68 69 44 36 40 27 22 18 15 10
239 141 151 181 177 168 169 152 142 136 116 80 43 28 12 27 27 6 355 357 8 14 346 334 349 13 27 7 342 340 94 99 87 80 75 86 73 45 45 58 40 21 6 1
231 160 170 182 180 173 169 173 163 155 146 131 88 36 14 27 22 4 360 4 4 358 346 350 360 15 21 1 343 349 43 74 70 79 80 107 123 96 52 66 60 52 38 25
77 124 141 153 167 171 172 177 168 161 155 148 113 65 16 11 23 13 9 6 350 341 352 1 4 15 7 352 343 350 38 69 74 54 53 68 112 140 139 96 52 39 34 36
129 144 138 152 163 169 177 176 168 170 167 171 133 56 8 358 17 14 8 357 335 332 3 7 9 15 357 340 331 347 72 84 84 79 53 60 57 71 103 133 143 150 64 27
171 178 159 158 159 172 180 176 179 186 185 178 170 196 343 359 357 349 356 354 332 340 6 4 14 9 346 332 333 9 51 67 64 72 64 80 78 80 80 80 82 77 68 23
179 188 165 168 172 180 185 187 192 199 192 182 180 194 189 299 296 300 350 350 329 336 352 7 18 356 331 323 330 43 93 76 44 353 132 105 81 90 91 84 78 72 58 23
180 190 184 181 182 187 192 195 200 204 190 181 186 182 227 263 276 320 350 326 308 309 11 30 21 341 320 329 340 337 140 140 178 273 258 100 95 105 111 105 96 92 89 53
191 194 192 190 188 190 194 198 203 206 191 174 156 176 237 256 288 337 322 312 312 332 45 35 9 323 308 14 357 336 315 178 192 201 127 86 28 93 117 118 118 122 140 145
192 192 194 196 194 191 193 196 196 194 186 168 169 206 230 244 271 301 313 314 317 343 18 15 340 313 334 59 9 322 307 296 206 160 134 131 233 219 131 127 127 130 133 135
195 193 194 196 195 190 188 188 186 186 183 176 185 207 224 232 225 243 288 293 279 73 8 348 319 312 360 31 360 318 306 298 279 211 164 170 198 177 151 140 138 137 136 132
203 199 198 199 193 188 185 184 182 182 179 178 193 211 221 228 213 215 245 278 59 86 350 311 297 351 18 346 319 297 291 292 280 256 189 179 190 175 171 161 154 155 148 143
214 209 204 202 194 190 188 190 184 180 180 181 193 215 228 229 232 233 229 218 206 142 258 297 326 17 338 326 297 283 279 282 281 269 227 196 188 181 181 167 156 156 158 157
220 213 209 208 203 198 193 197 193 184 185 188 192 201 214 217 222 232 253 212 147 134 211 285 320 320 318 312 292 283 274 265 257 248 217 203 204 196 181 162 156 154 160 160
263 224 212 207 206 204 201 199 198 188 181 183 191 197 203 207 211 215 223 218 188 177 230 269 284 288 297 289 280 281 288 280 254 247 231 195 191 198 185 163 159 159 164 163
303 274 233 211 210 209 207 197 194 190 182 183 191 195 202 205 206 215 231 218 173 181 228 260 268 272 273 273 284 306 311 306 307 302 268 201 179 183 200 174 165 164 167 168
319 308 300 255 230 211 204 197 188 180 179 182 191 194 195 193 196 200 211 238 242 225 224 241 254 261 260 277 314 308 296 289 259 216 222 232 209 189 200 209 187 175 172 171
314 302 300 297 285 251 233 213 195 188 183 184 192 197 200 198 193 195 205 214 225 222 219 223 233 245 260 271 272 277 283 287 285 254 217 210 210 201 194 199 194 182 173 168